DAH205 EGSS-DAAG

Flight info

Callsign DAH205
Flight time 2h 31m
Altitude 35000
Route NUGBO M183 SILVA Q41 COWLY DCT GWC UN859 SOPIL DCT BALAN DCT EVPOK DCT NARAK DCT GAI DCT LOMRA DCT ROCAN DCT PUMAL N859 GENIO N855 BUYAH
Aircraft B738/M-SDE2E3FGHIRWXY/LB1

Departure

Time 2026-05-07 15:38
Airport London Stansted Airport (EGSS)

Arrival

Time 2026-05-07 18:10
Airport Houari Boumediene Airport (DAAG)
Time Latitude Longitude Altitude Speed Heading
2026-05-07 15:28 51.89466 0.25971 348 ft 0 kts 313°
2026-05-07 15:29 51.89467 0.25969 348 ft 1 kts 313°
2026-05-07 15:29 51.89479 0.25948 355 ft 5 kts 312°
2026-05-07 15:29 51.89509 0.25896 355 ft 7 kts 313°
2026-05-07 15:29 51.89551 0.25843 355 ft 7 kts 329°
2026-05-07 15:30 51.89589 0.25802 349 ft 6 kts 317°
2026-05-07 15:30 51.89607 0.25744 354 ft 6 kts 279°
2026-05-07 15:30 51.89588 0.25669 348 ft 9 kts 228°
2026-05-07 15:30 51.89539 0.25597 349 ft 10 kts 222°
2026-05-07 15:31 51.89483 0.25512 355 ft 12 kts 223°
2026-05-07 15:31 51.89417 0.25413 351 ft 14 kts 223°
2026-05-07 15:31 51.89344 0.25303 352 ft 14 kts 223°
2026-05-07 15:31 51.89275 0.25195 355 ft 13 kts 229°
2026-05-07 15:32 51.89225 0.25071 357 ft 13 kts 237°
2026-05-07 15:32 51.89160 0.24955 355 ft 15 kts 221°
2026-05-07 15:32 51.89076 0.24831 354 ft 18 kts 222°
2026-05-07 15:32 51.88983 0.24689 351 ft 18 kts 223°
2026-05-07 15:33 51.88891 0.24552 354 ft 18 kts 223°
2026-05-07 15:33 51.88804 0.24420 356 ft 17 kts 223°
2026-05-07 15:33 51.88720 0.24294 354 ft 16 kts 223°
2026-05-07 15:33 51.88639 0.24173 351 ft 16 kts 223°
2026-05-07 15:34 51.88554 0.24046 354 ft 16 kts 223°
2026-05-07 15:34 51.88468 0.23917 354 ft 20 kts 223°
2026-05-07 15:34 51.88348 0.23737 353 ft 25 kts 223°
2026-05-07 15:34 51.88225 0.23552 349 ft 23 kts 222°
2026-05-07 15:35 51.88109 0.23378 355 ft 22 kts 223°
2026-05-07 15:35 51.87997 0.23210 349 ft 22 kts 223°
2026-05-07 15:35 51.87887 0.23046 350 ft 21 kts 223°
2026-05-07 15:35 51.87780 0.22885 349 ft 21 kts 223°
2026-05-07 15:36 51.87676 0.22730 352 ft 20 kts 223°
2026-05-07 15:36 51.87576 0.22579 350 ft 19 kts 223°
2026-05-07 15:36 51.87474 0.22427 337 ft 20 kts 222°
2026-05-07 15:36 51.87403 0.22293 336 ft 13 kts 252°
2026-05-07 15:37 51.87423 0.22169 334 ft 12 kts 308°
2026-05-07 15:37 51.87478 0.22069 332 ft 11 kts 313°
2026-05-07 15:37 51.87545 0.22047 333 ft 11 kts 33°
2026-05-07 15:37 51.87744 0.22345 337 ft 82 kts 42°
2026-05-07 15:38 51.88366 0.23286 351 ft 159 kts 46°
2026-05-07 15:38 51.89286 0.24608 916 ft 189 kts 41°
2026-05-07 15:38 51.90380 0.26038 1625 ft 217 kts 44°
2026-05-07 15:38 51.91559 0.27860 2053 ft 248 kts 46°
2026-05-07 15:39 51.92877 0.29602 3088 ft 243 kts 26°
2026-05-07 15:39 51.94558 0.29967 3686 ft 256 kts 349°
2026-05-07 15:39 51.96164 0.28597 3980 ft 267 kts 314°
2026-05-07 15:39 51.97023 0.26004 4006 ft 263 kts 281°
2026-05-07 15:40 51.97348 0.23053 4044 ft 270 kts 277°
2026-05-07 15:40 51.97616 0.20010 4024 ft 271 kts 277°
2026-05-07 15:40 51.97876 0.16991 4030 ft 269 kts 277°
2026-05-07 15:40 51.98159 0.13983 4290 ft 272 kts 278°
2026-05-07 15:41 51.98472 0.10949 4878 ft 274 kts 279°
2026-05-07 15:41 51.98796 0.07903 4991 ft 274 kts 279°
2026-05-07 15:41 51.98888 0.04854 5009 ft 269 kts 259°
2026-05-07 15:41 51.98487 0.01906 5206 ft 268 kts 256°
2026-05-07 15:42 51.98078 -0.01068 5943 ft 271 kts 257°
2026-05-07 15:42 51.97690 -0.04014 6858 ft 270 kts 257°
2026-05-07 15:42 51.97302 -0.07007 7703 ft 273 kts 258°
2026-05-07 15:42 51.96909 -0.10030 8513 ft 275 kts 258°
2026-05-07 15:43 51.96511 -0.13088 9304 ft 278 kts 258°
2026-05-07 15:43 51.96107 -0.16177 10061 ft 282 kts 257°
2026-05-07 15:43 51.95692 -0.19349 10549 ft 298 kts 257°
2026-05-07 15:43 51.95242 -0.22774 10737 ft 322 kts 257°
2026-05-07 15:44 51.94759 -0.26448 10922 ft 344 kts 257°
2026-05-07 15:44 51.94245 -0.30357 11090 ft 366 kts 257°
2026-05-07 15:44 51.93701 -0.34481 11446 ft 379 kts 257°
2026-05-07 15:44 51.93148 -0.38677 12056 ft 383 kts 257°
2026-05-07 15:45 51.92587 -0.42914 12739 ft 385 kts 257°
2026-05-07 15:45 51.92022 -0.47170 13423 ft 388 kts 256°
2026-05-07 15:45 51.91453 -0.51453 14074 ft 390 kts 256°
2026-05-07 15:45 51.90876 -0.55768 14712 ft 393 kts 257°
2026-05-07 15:46 51.89707 -0.64484 15910 ft 399 kts 256°
2026-05-07 15:46 51.89112 -0.68890 16488 ft 402 kts 256°
2026-05-07 15:46 51.88514 -0.73310 17064 ft 404 kts 256°
2026-05-07 15:47 51.87910 -0.77770 17613 ft 407 kts 256°
2026-05-07 15:47 51.87302 -0.82248 18154 ft 409 kts 256°
2026-05-07 15:47 51.86687 -0.86756 18671 ft 412 kts 256°
2026-05-07 15:47 51.86053 -0.91297 19160 ft 415 kts 254°
2026-05-07 15:48 51.84902 -0.95560 19578 ft 417 kts 234°
2026-05-07 15:48 51.82901 -0.98942 20108 ft 417 kts 217°
2026-05-07 15:48 51.80410 -1.01352 20591 ft 420 kts 203°
2026-05-07 15:48 51.77583 -1.02559 20984 ft 425 kts 190°
2026-05-07 15:49 51.74638 -1.03259 21399 ft 428 kts 189°
2026-05-07 15:49 51.71682 -1.03934 21786 ft 431 kts 189°
2026-05-07 15:49 51.68691 -1.04663 22176 ft 434 kts 190°
2026-05-07 15:49 51.65707 -1.05428 22561 ft 436 kts 190°
2026-05-07 15:50 51.62677 -1.05951 22894 ft 440 kts 182°
2026-05-07 15:50 51.59616 -1.05680 23298 ft 443 kts 173°
2026-05-07 15:50 51.56589 -1.04630 23664 ft 447 kts 167°
2026-05-07 15:50 51.53569 -1.03342 23996 ft 449 kts 167°
2026-05-07 15:51 51.50541 -1.02045 24315 ft 452 kts 167°
2026-05-07 15:51 51.47500 -1.00757 24657 ft 453 kts 167°
2026-05-07 15:51 51.44432 -0.99477 24969 ft 456 kts 167°
2026-05-07 15:51 51.41361 -0.98212 25261 ft 458 kts 167°
2026-05-07 15:52 51.38270 -0.96946 25559 ft 460 kts 167°
2026-05-07 15:52 51.35205 -0.95698 25854 ft 461 kts 167°
2026-05-07 15:52 51.32089 -0.94432 26143 ft 463 kts 167°
2026-05-07 15:52 51.28964 -0.93164 26402 ft 465 kts 167°
2026-05-07 15:53 51.25830 -0.91894 26707 ft 465 kts 167°
2026-05-07 15:53 51.22660 -0.90610 27114 ft 464 kts 167°
2026-05-07 15:53 51.19577 -0.89364 27554 ft 461 kts 167°
2026-05-07 15:53 51.16476 -0.88113 27955 ft 459 kts 167°
2026-05-07 15:54 51.13378 -0.86864 28288 ft 459 kts 167°
2026-05-07 15:54 51.10281 -0.85618 28615 ft 459 kts 167°
2026-05-07 15:54 51.07181 -0.84371 28994 ft 458 kts 167°
2026-05-07 15:54 51.04106 -0.83136 29361 ft 456 kts 167°
2026-05-07 15:55 51.01026 -0.81901 29680 ft 456 kts 167°
2026-05-07 15:55 50.97954 -0.80671 29999 ft 456 kts 167°
2026-05-07 15:55 50.94875 -0.79439 30339 ft 455 kts 167°
2026-05-07 15:55 50.91804 -0.78212 30673 ft 454 kts 167°
2026-05-07 15:56 50.88743 -0.76992 31003 ft 453 kts 167°
2026-05-07 15:56 50.85740 -0.75492 31290 ft 454 kts 159°
2026-05-07 15:56 50.82908 -0.73273 31600 ft 456 kts 150°
2026-05-07 15:56 50.80241 -0.70548 31902 ft 455 kts 148°
2026-05-07 15:57 50.77599 -0.67796 32164 ft 456 kts 148°
2026-05-07 15:57 50.74954 -0.65043 32423 ft 455 kts 148°
2026-05-07 15:57 50.72305 -0.62306 32704 ft 455 kts 149°
2026-05-07 15:57 50.69653 -0.59588 33009 ft 453 kts 149°
2026-05-07 15:58 50.67013 -0.56901 33275 ft 452 kts 149°
2026-05-07 15:58 50.64363 -0.54217 33512 ft 452 kts 149°
2026-05-07 15:58 50.61714 -0.51541 33765 ft 452 kts 149°
2026-05-07 15:58 50.59072 -0.48876 34025 ft 451 kts 149°
2026-05-07 15:59 50.56426 -0.46212 34258 ft 451 kts 149°
2026-05-07 15:59 50.53785 -0.43556 34448 ft 451 kts 149°
2026-05-07 15:59 50.51141 -0.40900 34665 ft 451 kts 149°
2026-05-07 15:59 50.48490 -0.38240 34876 ft 451 kts 149°
2026-05-07 16:00 50.45843 -0.35586 35053 ft 452 kts 149°
2026-05-07 16:00 50.43195 -0.32935 35234 ft 452 kts 149°
2026-05-07 16:00 50.40540 -0.30280 35428 ft 452 kts 149°
2026-05-07 16:00 50.37884 -0.27629 35634 ft 452 kts 149°
2026-05-07 16:01 50.35232 -0.24985 35811 ft 452 kts 149°
2026-05-07 16:01 50.32575 -0.22339 35974 ft 453 kts 149°
2026-05-07 16:01 50.29917 -0.19698 36159 ft 453 kts 149°
2026-05-07 16:01 50.27260 -0.17060 36350 ft 453 kts 149°
2026-05-07 16:02 50.24597 -0.14418 36481 ft 454 kts 149°
2026-05-07 16:02 50.21926 -0.11772 36617 ft 455 kts 149°
2026-05-07 16:02 50.19263 -0.09137 36865 ft 452 kts 149°
2026-05-07 16:02 50.16618 -0.06519 37068 ft 451 kts 150°
2026-05-07 16:03 50.13960 -0.03898 37048 ft 451 kts 150°
2026-05-07 16:03 50.08467 0.00664 37052 ft 443 kts 163°
2026-05-07 16:04 50.02557 0.03056 37058 ft 439 kts 169°
2026-05-07 16:04 49.96647 0.05275 37058 ft 440 kts 168°
2026-05-07 16:05 49.90661 0.07587 37053 ft 441 kts 168°
2026-05-07 16:05 49.84705 0.09914 37049 ft 442 kts 168°
2026-05-07 16:06 49.78766 0.12232 37045 ft 443 kts 168°
2026-05-07 16:06 49.72774 0.14564 37044 ft 445 kts 168°
2026-05-07 16:07 49.66771 0.16900 37048 ft 445 kts 168°
2026-05-07 16:07 49.60768 0.19328 37047 ft 446 kts 167°
2026-05-07 16:08 49.54765 0.21774 37051 ft 447 kts 168°
2026-05-07 16:08 49.48748 0.24209 37045 ft 447 kts 168°
2026-05-07 16:09 49.42723 0.26636 37032 ft 447 kts 168°
2026-05-07 16:09 49.36716 0.29050 37024 ft 447 kts 168°
2026-05-07 16:10 49.31718 0.31051 37026 ft 446 kts 168°
2026-05-07 16:10 49.25730 0.33522 37021 ft 445 kts 167°
2026-05-07 16:11 49.19767 0.36050 37032 ft 444 kts 167°
2026-05-07 16:11 49.13814 0.38561 37027 ft 443 kts 167°
2026-05-07 16:12 49.07864 0.41052 37027 ft 443 kts 167°
2026-05-07 16:12 49.01920 0.43532 37026 ft 443 kts 167°
2026-05-07 16:13 48.95985 0.46002 37030 ft 443 kts 167°
2026-05-07 16:13 48.90044 0.48469 37026 ft 443 kts 167°
2026-05-07 16:14 48.84100 0.50932 37027 ft 443 kts 167°
2026-05-07 16:14 48.78155 0.53384 37030 ft 443 kts 168°
2026-05-07 16:15 48.72183 0.55735 37026 ft 443 kts 168°
2026-05-07 16:15 48.66207 0.58050 37035 ft 444 kts 168°
2026-05-07 16:16 48.60224 0.60378 37028 ft 444 kts 168°
2026-05-07 16:16 48.54268 0.62696 37022 ft 445 kts 168°
2026-05-07 16:17 48.48283 0.65063 37018 ft 445 kts 167°
2026-05-07 16:17 48.42306 0.67508 37015 ft 445 kts 167°
2026-05-07 16:18 48.36323 0.69946 37015 ft 445 kts 167°
2026-05-07 16:18 48.30339 0.72367 37008 ft 445 kts 168°
2026-05-07 16:19 48.24353 0.74779 37011 ft 444 kts 168°
2026-05-07 16:19 48.18376 0.77143 37010 ft 445 kts 168°
2026-05-07 16:20 48.12393 0.79488 36997 ft 444 kts 168°
2026-05-07 16:20 48.06421 0.81828 36999 ft 444 kts 168°
2026-05-07 16:21 48.00444 0.84169 37003 ft 443 kts 168°
2026-05-07 16:21 47.94478 0.86501 37002 ft 443 kts 168°
2026-05-07 16:22 47.88506 0.88830 36995 ft 444 kts 168°
2026-05-07 16:22 47.82535 0.91152 36992 ft 443 kts 168°
2026-05-07 16:23 47.76566 0.93463 36990 ft 443 kts 168°
2026-05-07 16:23 47.70590 0.95770 36989 ft 443 kts 168°
2026-05-07 16:24 47.64625 0.98070 36991 ft 443 kts 168°
2026-05-07 16:24 47.58696 1.00350 36991 ft 443 kts 168°
2026-05-07 16:25 47.52731 1.02639 36991 ft 443 kts 168°
2026-05-07 16:25 47.46764 1.04923 36989 ft 443 kts 168°
2026-05-07 16:26 47.40735 1.06503 36980 ft 437 kts 183°
2026-05-07 16:26 47.34672 1.06309 36990 ft 436 kts 185°
2026-05-07 16:27 47.28606 1.06094 36989 ft 436 kts 184°
2026-05-07 16:27 47.22541 1.05939 36991 ft 436 kts 184°
2026-05-07 16:28 47.16465 1.05806 36989 ft 436 kts 184°
2026-05-07 16:28 47.10392 1.05673 36993 ft 436 kts 184°
2026-05-07 16:29 47.04316 1.05538 36989 ft 437 kts 184°
2026-05-07 16:29 46.98250 1.05349 36990 ft 436 kts 185°
2026-05-07 16:30 46.92196 1.05067 36991 ft 435 kts 185°
2026-05-07 16:30 46.86146 1.04789 36989 ft 435 kts 185°
2026-05-07 16:31 46.80100 1.04523 36985 ft 435 kts 185°
2026-05-07 16:31 46.74047 1.04263 36984 ft 435 kts 185°
2026-05-07 16:32 46.67997 1.04004 36979 ft 435 kts 185°
2026-05-07 16:32 46.61959 1.03744 36980 ft 434 kts 185°
2026-05-07 16:33 46.55924 1.03485 36984 ft 434 kts 185°
2026-05-07 16:33 46.49878 1.03756 36965 ft 439 kts 173°
2026-05-07 16:34 46.43907 1.05744 36970 ft 440 kts 170°
2026-05-07 16:34 46.37950 1.07822 36969 ft 440 kts 170°
2026-05-07 16:35 46.31990 1.09850 36971 ft 440 kts 171°
2026-05-07 16:35 46.26039 1.11838 36971 ft 439 kts 171°
2026-05-07 16:36 46.20080 1.13814 36974 ft 439 kts 171°
2026-05-07 16:36 46.14121 1.15788 36974 ft 439 kts 171°
2026-05-07 16:37 46.08167 1.17756 36969 ft 439 kts 171°
2026-05-07 16:37 46.02212 1.19721 36975 ft 439 kts 171°
2026-05-07 16:38 45.96293 1.21669 36977 ft 439 kts 171°
2026-05-07 16:38 45.90301 1.23636 36958 ft 439 kts 171°
2026-05-07 16:39 45.84349 1.25587 36964 ft 438 kts 171°
2026-05-07 16:39 45.78406 1.27529 36963 ft 438 kts 171°
2026-05-07 16:40 45.72469 1.29466 36964 ft 437 kts 171°
2026-05-07 16:40 45.66538 1.31398 36964 ft 437 kts 171°
2026-05-07 16:41 45.60645 1.33311 36960 ft 437 kts 171°
2026-05-07 16:41 45.54715 1.35234 36964 ft 437 kts 171°
2026-05-07 16:42 45.48792 1.37150 36960 ft 436 kts 171°
2026-05-07 16:42 45.42874 1.39059 36958 ft 436 kts 171°
2026-05-07 16:43 45.36953 1.40966 36955 ft 436 kts 171°
2026-05-07 16:43 45.31037 1.42868 36952 ft 436 kts 171°
2026-05-07 16:44 45.25125 1.44765 36952 ft 436 kts 171°
2026-05-07 16:44 45.19210 1.46660 36957 ft 435 kts 171°
2026-05-07 16:45 45.13296 1.48548 36941 ft 436 kts 171°
2026-05-07 16:45 45.07383 1.50434 36948 ft 436 kts 171°
2026-05-07 16:46 45.01464 1.52317 36944 ft 436 kts 171°
2026-05-07 16:46 44.95556 1.54193 36948 ft 435 kts 171°
2026-05-07 16:47 44.89649 1.56067 36957 ft 435 kts 171°
2026-05-07 16:47 44.83739 1.57934 36950 ft 435 kts 171°
2026-05-07 16:48 44.77844 1.59793 36956 ft 434 kts 171°
2026-05-07 16:48 44.71946 1.61649 36949 ft 434 kts 171°
2026-05-07 16:49 44.66101 1.63486 36955 ft 433 kts 171°
2026-05-07 16:49 44.60236 1.65324 36951 ft 432 kts 171°
2026-05-07 16:50 44.54379 1.67157 36965 ft 431 kts 171°
2026-05-07 16:50 44.48529 1.68984 36962 ft 431 kts 171°
2026-05-07 16:51 44.42683 1.70805 36963 ft 430 kts 171°
2026-05-07 16:51 44.36838 1.72623 36963 ft 430 kts 171°
2026-05-07 16:52 44.31002 1.74434 36956 ft 430 kts 171°
2026-05-07 16:52 44.25141 1.75974 36959 ft 428 kts 175°
2026-05-07 16:53 44.19250 1.77212 36957 ft 428 kts 175°
2026-05-07 16:53 44.13363 1.78462 36945 ft 428 kts 175°
2026-05-07 16:54 44.07488 1.79747 36956 ft 428 kts 175°
2026-05-07 16:54 44.01605 1.81040 36949 ft 428 kts 175°
2026-05-07 16:55 43.95724 1.82327 36952 ft 428 kts 175°
2026-05-07 16:55 43.89821 1.83122 36959 ft 425 kts 180°
2026-05-07 16:56 43.83923 1.83600 36952 ft 425 kts 180°
2026-05-07 16:56 43.75069 1.84382 36956 ft 425 kts 180°
2026-05-07 16:57 43.70158 1.84853 36957 ft 426 kts 179°
2026-05-07 16:57 43.64256 1.85425 36954 ft 426 kts 180°
2026-05-07 16:58 43.58341 1.85997 36954 ft 426 kts 180°
2026-05-07 16:58 43.52441 1.86568 36955 ft 425 kts 180°
2026-05-07 16:59 43.46533 1.87136 36942 ft 426 kts 180°
2026-05-07 16:59 43.40631 1.87703 36943 ft 425 kts 180°
2026-05-07 17:00 43.34742 1.88268 36947 ft 424 kts 180°
2026-05-07 17:00 43.28859 1.88833 36933 ft 423 kts 180°
2026-05-07 17:01 43.22997 1.89398 36936 ft 422 kts 180°
2026-05-07 17:01 43.17152 1.89959 36931 ft 421 kts 180°
2026-05-07 17:02 43.11307 1.90519 36932 ft 420 kts 180°
2026-05-07 17:02 43.05479 1.91076 36928 ft 419 kts 180°
2026-05-07 17:03 42.99670 1.91631 36933 ft 418 kts 180°
2026-05-07 17:03 42.93862 1.92186 36917 ft 417 kts 180°
2026-05-07 17:04 42.88117 1.92730 36929 ft 416 kts 180°
2026-05-07 17:04 42.82343 1.93278 36931 ft 416 kts 180°
2026-05-07 17:05 42.76572 1.93824 36938 ft 415 kts 180°
2026-05-07 17:05 42.70819 1.94368 36942 ft 414 kts 181°
2026-05-07 17:06 42.65068 1.95060 36934 ft 415 kts 177°
2026-05-07 17:06 42.59358 1.96222 36945 ft 416 kts 176°
2026-05-07 17:07 42.53647 1.97416 36933 ft 415 kts 176°
2026-05-07 17:07 42.47931 1.98570 36936 ft 415 kts 177°
2026-05-07 17:08 42.42209 1.99706 36937 ft 415 kts 177°
2026-05-07 17:08 42.36503 2.00825 36934 ft 413 kts 179°
2026-05-07 17:09 42.30793 2.01442 36938 ft 411 kts 181°
2026-05-07 17:09 42.25086 2.01951 36952 ft 411 kts 181°
2026-05-07 17:10 42.19391 2.02473 36956 ft 410 kts 181°
2026-05-07 17:10 42.13702 2.03011 36951 ft 410 kts 181°
2026-05-07 17:11 42.08047 2.03554 36953 ft 409 kts 181°
2026-05-07 17:11 42.02368 2.04099 36947 ft 409 kts 181°
2026-05-07 17:12 41.96692 2.04644 36968 ft 408 kts 181°
2026-05-07 17:12 41.91016 2.05184 36963 ft 409 kts 181°
2026-05-07 17:13 41.85326 2.05723 36967 ft 410 kts 181°
2026-05-07 17:13 41.79645 2.06263 36959 ft 410 kts 181°
2026-05-07 17:14 41.73953 2.06803 36959 ft 410 kts 181°
2026-05-07 17:14 41.68258 2.07342 36968 ft 411 kts 181°
2026-05-07 17:15 41.62563 2.07869 36963 ft 411 kts 181°
2026-05-07 17:15 41.56850 2.08396 36956 ft 411 kts 181°
2026-05-07 17:16 41.51141 2.08922 36965 ft 411 kts 181°
2026-05-07 17:16 41.45438 2.09448 36963 ft 411 kts 181°
2026-05-07 17:17 41.39746 2.09971 36968 ft 411 kts 181°
2026-05-07 17:17 41.34036 2.10495 36958 ft 410 kts 181°
2026-05-07 17:18 41.28385 2.11521 36958 ft 418 kts 171°
2026-05-07 17:18 41.22770 2.13578 36962 ft 418 kts 171°
2026-05-07 17:19 41.17160 2.15624 36962 ft 418 kts 171°
2026-05-07 17:19 41.11539 2.17638 36966 ft 418 kts 171°
2026-05-07 17:20 41.05921 2.19635 36962 ft 418 kts 171°
2026-05-07 17:20 41.00302 2.21628 36964 ft 417 kts 171°
2026-05-07 17:21 40.94729 2.23603 36962 ft 417 kts 171°
2026-05-07 17:21 40.89117 2.25588 36963 ft 417 kts 171°
2026-05-07 17:22 40.83515 2.27566 36960 ft 416 kts 171°
2026-05-07 17:22 40.77914 2.29540 36965 ft 416 kts 171°
2026-05-07 17:23 40.72341 2.31506 36961 ft 416 kts 171°
2026-05-07 17:23 40.66751 2.33475 36957 ft 417 kts 171°
2026-05-07 17:24 40.61134 2.35445 36953 ft 417 kts 171°
2026-05-07 17:24 40.55527 2.37388 36954 ft 417 kts 171°
2026-05-07 17:25 40.49948 2.39317 36955 ft 416 kts 171°
2026-05-07 17:25 40.44342 2.41259 36952 ft 416 kts 171°
2026-05-07 17:26 40.38743 2.43199 36953 ft 416 kts 171°
2026-05-07 17:26 40.33151 2.45135 36953 ft 416 kts 171°
2026-05-07 17:27 40.27552 2.47066 36944 ft 416 kts 171°
2026-05-07 17:27 40.21954 2.48995 36945 ft 416 kts 171°
2026-05-07 17:28 40.16356 2.50923 36945 ft 415 kts 171°
2026-05-07 17:28 40.10762 2.52853 36944 ft 416 kts 171°
2026-05-07 17:29 40.05197 2.54768 36948 ft 416 kts 171°
2026-05-07 17:29 39.99594 2.56694 36944 ft 416 kts 171°
2026-05-07 17:30 39.93982 2.58621 36942 ft 416 kts 171°
2026-05-07 17:30 39.88417 2.60527 36953 ft 416 kts 172°
2026-05-07 17:31 39.82810 2.62444 36942 ft 416 kts 172°
2026-05-07 17:31 39.77200 2.64360 36935 ft 416 kts 172°
2026-05-07 17:32 39.71596 2.66271 36936 ft 416 kts 172°
2026-05-07 17:32 39.66930 2.67859 36933 ft 416 kts 172°
2026-05-07 17:33 39.60392 2.70079 36934 ft 416 kts 172°
2026-05-07 17:33 39.54828 2.71967 36932 ft 416 kts 172°
2026-05-07 17:34 39.49239 2.73860 36934 ft 415 kts 172°
2026-05-07 17:34 39.43651 2.75748 36936 ft 415 kts 172°
2026-05-07 17:35 39.38064 2.77677 36935 ft 415 kts 172°
2026-05-07 17:35 39.32475 2.79627 36929 ft 415 kts 172°
2026-05-07 17:36 39.26911 2.81562 36938 ft 414 kts 172°
2026-05-07 17:36 39.21336 2.83495 36935 ft 414 kts 172°
2026-05-07 17:37 39.15804 2.85408 36934 ft 414 kts 172°
2026-05-07 17:37 39.10232 2.87333 36938 ft 415 kts 172°
2026-05-07 17:38 39.04644 2.89260 36937 ft 415 kts 172°
2026-05-07 17:38 38.99062 2.91165 36934 ft 415 kts 172°
2026-05-07 17:39 38.93509 2.93030 36935 ft 415 kts 172°
2026-05-07 17:39 38.87914 2.94932 36705 ft 418 kts 172°
2026-05-07 17:40 38.85105 2.95894 36464 ft 417 kts 172°
2026-05-07 17:40 38.82318 2.96852 36206 ft 413 kts 172°
2026-05-07 17:40 38.79544 2.97803 35961 ft 414 kts 172°
2026-05-07 17:40 38.76745 2.98757 35719 ft 418 kts 172°
2026-05-07 17:41 38.73927 2.99716 35473 ft 421 kts 172°
2026-05-07 17:41 38.71087 3.00682 35228 ft 422 kts 172°
2026-05-07 17:41 38.68243 3.01648 34982 ft 423 kts 172°
2026-05-07 17:41 38.65395 3.02618 34740 ft 423 kts 172°
2026-05-07 17:42 38.62550 3.03587 34487 ft 422 kts 172°
2026-05-07 17:42 38.59744 3.04541 34241 ft 421 kts 172°
2026-05-07 17:42 38.56907 3.05505 33991 ft 420 kts 171°
2026-05-07 17:42 38.54090 3.06462 33744 ft 418 kts 172°
2026-05-07 17:43 38.51279 3.07415 33491 ft 417 kts 172°
2026-05-07 17:43 38.48474 3.08365 33236 ft 416 kts 172°
2026-05-07 17:43 38.45654 3.09316 32753 ft 420 kts 172°
2026-05-07 17:43 38.42853 3.10260 32312 ft 422 kts 171°
2026-05-07 17:44 38.40022 3.11217 32087 ft 419 kts 172°
2026-05-07 17:44 38.37209 3.12170 31828 ft 418 kts 171°
2026-05-07 17:44 38.34403 3.13117 31582 ft 416 kts 171°
2026-05-07 17:44 38.31605 3.14059 31329 ft 416 kts 172°
2026-05-07 17:45 38.28777 3.14780 31075 ft 411 kts 179°
2026-05-07 17:45 38.26892 3.14944 30911 ft 408 kts 184°
2026-05-07 17:45 38.24061 3.14932 30675 ft 409 kts 185°
2026-05-07 17:45 38.21204 3.14941 30425 ft 411 kts 184°
2026-05-07 17:46 38.18329 3.14978 30177 ft 413 kts 184°
2026-05-07 17:46 38.15443 3.15026 29930 ft 416 kts 184°
2026-05-07 17:46 38.12537 3.15077 29681 ft 418 kts 184°
2026-05-07 17:46 38.09617 3.15291 29424 ft 424 kts 178°
2026-05-07 17:47 38.06729 3.15774 28821 ft 425 kts 177°
2026-05-07 17:47 38.03754 3.16333 27923 ft 427 kts 176°
2026-05-07 17:47 38.00853 3.16893 26979 ft 428 kts 176°
2026-05-07 17:47 37.97895 3.17461 26002 ft 430 kts 176°
2026-05-07 17:48 37.94934 3.18018 25255 ft 427 kts 176°
2026-05-07 17:48 37.92001 3.18561 24549 ft 424 kts 176°
2026-05-07 17:48 37.89084 3.19093 23852 ft 421 kts 176°
2026-05-07 17:48 37.86200 3.19614 23161 ft 418 kts 176°
2026-05-07 17:49 37.83305 3.20132 22481 ft 425 kts 176°
2026-05-07 17:49 37.80346 3.20657 21748 ft 432 kts 176°
2026-05-07 17:49 37.77384 3.21184 21030 ft 427 kts 176°
2026-05-07 17:49 37.74444 3.21710 20318 ft 423 kts 176°
2026-05-07 17:50 37.71552 3.22228 19621 ft 418 kts 175°
2026-05-07 17:50 37.68728 3.22734 18934 ft 413 kts 175°
2026-05-07 17:50 37.65895 3.23239 18247 ft 409 kts 175°
2026-05-07 17:50 37.63082 3.23741 17562 ft 404 kts 175°
2026-05-07 17:51 37.60305 3.24235 16886 ft 400 kts 175°
2026-05-07 17:51 37.57560 3.24726 16209 ft 397 kts 174°
2026-05-07 17:51 37.54915 3.25754 15508 ft 401 kts 156°
2026-05-07 17:51 37.52494 3.27372 14874 ft 396 kts 156°
2026-05-07 17:52 37.50038 3.28921 14214 ft 392 kts 156°
2026-05-07 17:52 37.47590 3.30415 13573 ft 389 kts 156°
2026-05-07 17:52 37.45153 3.31883 12937 ft 385 kts 157°
2026-05-07 17:52 37.42736 3.33317 12301 ft 381 kts 157°
2026-05-07 17:53 37.40350 3.34722 11661 ft 377 kts 156°
2026-05-07 17:53 37.37972 3.36094 11140 ft 372 kts 156°
2026-05-07 17:53 37.35667 3.37405 11001 ft 356 kts 157°
2026-05-07 17:53 37.33509 3.38629 10834 ft 334 kts 157°
2026-05-07 17:54 37.31449 3.39797 10701 ft 315 kts 157°
2026-05-07 17:54 37.29505 3.40890 10605 ft 298 kts 157°
2026-05-07 17:54 37.27666 3.41921 10545 ft 278 kts 157°
2026-05-07 17:54 37.25955 3.42883 10475 ft 262 kts 157°
2026-05-07 17:55 37.24332 3.43795 10377 ft 249 kts 157°
2026-05-07 17:55 37.22765 3.44668 10293 ft 245 kts 157°
2026-05-07 17:55 37.21198 3.45548 10219 ft 249 kts 157°
2026-05-07 17:55 37.19629 3.46429 10133 ft 252 kts 157°
2026-05-07 17:56 37.18015 3.47332 10040 ft 255 kts 157°
2026-05-07 17:56 37.16379 3.48246 9819 ft 259 kts 157°
2026-05-07 17:56 37.14739 3.49158 9589 ft 256 kts 157°
2026-05-07 17:56 37.13136 3.50048 9348 ft 247 kts 157°
2026-05-07 17:57 37.11587 3.50904 9126 ft 240 kts 157°
2026-05-07 17:57 37.10577 3.51459 8985 ft 239 kts 157°
2026-05-07 17:57 37.08526 3.52580 8690 ft 246 kts 157°
2026-05-07 17:57 37.06943 3.53442 8463 ft 248 kts 157°
2026-05-07 17:58 37.05373 3.54295 8242 ft 244 kts 157°
2026-05-07 17:58 37.03824 3.55137 8032 ft 240 kts 157°
2026-05-07 17:58 37.02303 3.55964 7827 ft 237 kts 157°
2026-05-07 17:58 37.00790 3.56782 7644 ft 236 kts 157°
2026-05-07 17:59 36.99285 3.57593 7455 ft 235 kts 157°
2026-05-07 17:59 36.97787 3.58400 7277 ft 234 kts 157°
2026-05-07 17:59 36.96298 3.59204 7105 ft 232 kts 157°
2026-05-07 17:59 36.94828 3.59895 6940 ft 226 kts 172°
2026-05-07 18:00 36.93311 3.59775 6800 ft 213 kts 188°
2026-05-07 18:00 36.91866 3.59494 6557 ft 206 kts 187°
2026-05-07 18:00 36.90480 3.59235 6345 ft 197 kts 187°
2026-05-07 18:00 36.89142 3.58990 6152 ft 191 kts 187°
2026-05-07 18:01 36.87832 3.58736 5982 ft 187 kts 195°
2026-05-07 18:01 36.86776 3.57802 5907 ft 198 kts 224°
2026-05-07 18:01 36.85746 3.56555 5720 ft 215 kts 214°
2026-05-07 18:01 36.84475 3.55348 5397 ft 238 kts 216°
2026-05-07 18:02 36.81968 3.52978 4820 ft 212 kts 214°
2026-05-07 18:02 36.80834 3.51913 4679 ft 196 kts 214°
2026-05-07 18:02 36.79776 3.50917 4569 ft 188 kts 214°
2026-05-07 18:03 36.78738 3.49937 4496 ft 186 kts 214°
2026-05-07 18:03 36.77701 3.48956 4456 ft 186 kts 214°
2026-05-07 18:03 36.76681 3.47989 4459 ft 187 kts 214°
2026-05-07 18:03 36.75623 3.46990 4283 ft 192 kts 213°
2026-05-07 18:04 36.74563 3.45958 4055 ft 188 kts 213°
2026-05-07 18:04 36.73534 3.45009 3853 ft 180 kts 214°
2026-05-07 18:04 36.72555 3.44072 3686 ft 173 kts 214°
2026-05-07 18:04 36.71599 3.43159 3514 ft 175 kts 214°
2026-05-07 18:05 36.70619 3.42236 3357 ft 177 kts 214°
2026-05-07 18:05 36.69642 3.41304 3190 ft 176 kts 214°
2026-05-07 18:05 36.68855 3.40173 3009 ft 181 kts 249°
2026-05-07 18:05 36.68767 3.38606 2829 ft 183 kts 266°
2026-05-07 18:06 36.68767 3.37071 2582 ft 170 kts 268°
2026-05-07 18:06 36.68789 3.35636 2365 ft 164 kts 269°
2026-05-07 18:06 36.68817 3.34219 2152 ft 164 kts 269°
2026-05-07 18:06 36.68848 3.32800 1943 ft 163 kts 270°
2026-05-07 18:07 36.68879 3.31390 1724 ft 162 kts 271°
2026-05-07 18:07 36.68909 3.29991 1514 ft 161 kts 271°
2026-05-07 18:07 36.68940 3.28627 1318 ft 150 kts 271°
2026-05-07 18:07 36.68967 3.27392 1113 ft 137 kts 272°
2026-05-07 18:08 36.68994 3.26232 930 ft 132 kts 272°
2026-05-07 18:08 36.69021 3.25071 758 ft 136 kts 273°
2026-05-07 18:08 36.69048 3.23880 575 ft 138 kts 274°
2026-05-07 18:08 36.69075 3.22697 397 ft 137 kts 273°
2026-05-07 18:09 36.69102 3.21504 217 ft 137 kts 272°
2026-05-07 18:09 36.69128 3.20321 75 ft 131 kts 272°
2026-05-07 18:09 36.69150 3.19359 67 ft 84 kts 271°
2026-05-07 18:09 36.69165 3.18749 77 ft 51 kts 272°
2026-05-07 18:10 36.69171 3.18503 72 ft 20 kts 276°
2026-05-07 18:10 36.69212 3.18430 70 ft 8 kts 340°
2026-05-07 18:10 36.69277 3.18427 72 ft 11 kts
2026-05-07 18:10 36.69335 3.18481 63 ft 11 kts 73°
2026-05-07 18:11 36.69338 3.18578 66 ft 11 kts 90°
2026-05-07 18:11 36.69338 3.18637 66 ft 10 kts 90°
2026-05-07 18:11 36.69334 3.18749 70 ft 9 kts 93°
2026-05-07 18:11 36.69332 3.18836 64 ft 11 kts 91°
2026-05-07 18:12 36.69330 3.18937 70 ft 12 kts 92°
2026-05-07 18:12 36.69328 3.19038 63 ft 11 kts 91°
2026-05-07 18:12 36.69326 3.19135 65 ft 11 kts 91°
2026-05-07 18:12 36.69323 3.19230 70 ft 11 kts 92°
2026-05-07 18:13 36.69321 3.19323 62 ft 11 kts 91°
2026-05-07 18:13 36.69318 3.19427 66 ft 13 kts 92°
2026-05-07 18:13 36.69315 3.19543 61 ft 13 kts 91°
2026-05-07 18:13 36.69313 3.19655 65 ft 13 kts 92°
2026-05-07 18:14 36.69310 3.19762 68 ft 12 kts 92°
2026-05-07 18:14 36.69307 3.19866 69 ft 12 kts 91°
2026-05-07 18:14 36.69305 3.19967 69 ft 11 kts 91°
2026-05-07 18:14 36.69303 3.20065 64 ft 11 kts 91°
2026-05-07 18:15 36.69301 3.20159 67 ft 11 kts 92°
2026-05-07 18:15 36.69305 3.20251 63 ft 10 kts 69°
2026-05-07 18:15 36.69364 3.20289 65 ft 10 kts
2026-05-07 18:15 36.69429 3.20310 64 ft 10 kts 38°
2026-05-07 18:16 36.69482 3.20361 62 ft 10 kts 19°
2026-05-07 18:16 36.69547 3.20367 65 ft 9 kts
2026-05-07 18:16 36.69601 3.20400 64 ft 9 kts 60°
2026-05-07 18:16 36.69603 3.20471 64 ft 8 kts 93°
2026-05-07 18:17 36.69602 3.20539 62 ft 8 kts 91°
2026-05-07 18:17 36.69600 3.20604 67 ft 8 kts 91°
2026-05-07 18:17 36.69599 3.20683 62 ft 10 kts 91°
2026-05-07 18:17 36.69598 3.20757 63 ft 9 kts 91°
2026-05-07 18:18 36.69598 3.20834 69 ft 9 kts 85°
2026-05-07 18:18 36.69612 3.20907 64 ft 8 kts 69°
2026-05-07 18:18 36.69640 3.20970 61 ft 8 kts 53°
2026-05-07 18:18 36.69682 3.21017 62 ft 8 kts 33°
2026-05-07 18:19 36.69710 3.21035 69 ft 2 kts 25°
2026-05-07 18:19 36.69721 3.21041 69 ft 2 kts 17°
2026-05-07 18:19 36.69730 3.21038 69 ft 1 kts 334°
2026-05-07 18:19 36.69734 3.21027 59 ft 1 kts 292°
2026-05-07 18:20 36.69738 3.21015 65 ft 1 kts 293°
2026-05-07 18:20 36.69742 3.21005 69 ft 1 kts 293°
2026-05-07 18:20 36.69745 3.20995 66 ft 1 kts 293°
2026-05-07 18:20 36.69748 3.20986 63 ft 1 kts 293°
2026-05-07 18:21 36.69751 3.20977 62 ft 1 kts 293°
2026-05-07 18:21 36.69754 3.20970 64 ft 1 kts 293°
2026-05-07 18:21 36.69756 3.20962 69 ft 1 kts 293°
2026-05-07 18:21 36.69758 3.20957 65 ft 0 kts 293°
2026-05-07 18:22 36.69759 3.20954 69 ft 0 kts 293°
2026-05-07 18:22 36.69761 3.20950 69 ft 1 kts 293°
2026-05-07 18:22 36.69764 3.20939 61 ft 1 kts 293°
2026-05-07 18:22 36.69766 3.20935 62 ft 0 kts 293°
2026-05-07 18:23 36.69767 3.20932 69 ft 0 kts 293°
2026-05-07 18:23 36.69768 3.20929 65 ft 0 kts 293°
2026-05-07 18:23 36.69768 3.20928 65 ft 0 kts 293°